Back to catalog

SUPERBIRD A

AliveCommunicationsGEO
NORAD 20040·PAYLOAD·🇯🇵 Japan

Launched Jun 5, 1989 from Guiana Space Centre

Loading…

TLE

FreshSource: Space-Track

Epoch: Sep 13, 2026, 20:49 UTC

1 20040U 89041A   26256.86772250  .00000057  00000-0  00000+0 0  9997
2 20040  12.0787 331.7122 0004390 193.4579 167.2939  0.99750944135357

Track SUPERBIRD A in real time with AllMySat

Download on the App Store